When you browse on this site, cookies collect data to enhance your experience and personalize the content and advertising you see.
Visit our Privacy Policy to learn more. By continuing to use the site, you agree to this use of cookies and data.
  • en France
  • Liste des pays
  • À 7 jours
  • Température de l'eau
  • Carte météo
  • Widgets météo
  • user-avatar
    Se connecter

    Météo par heure à Potosi

    Ce jour, 22 Septembre, Dimanche

    Heure Température Précipitation Vent Pression Humidité
    00:00 +10°C° 0.1 mm 1 m/s 469 mmHg 75%
    01:00 +10°C° 0.1 mm 1 m/s 469 mmHg 74%
    02:00 +10°C° 0.1 mm 1 m/s 469 mmHg 73%
    03:00 +9°C° 0.2 mm 1 m/s 469 mmHg 75%
    04:00 +9°C° 0.2 mm 1 m/s 469 mmHg 76%
    05:00 +8°C° 0.2 mm 1 m/s 469 mmHg 78%
    06:00 +9°C° 0.1 mm 1 m/s 469 mmHg 76%
    07:00 +9°C° 0.1 mm 1 m/s 470 mmHg 74%
    08:00 +9°C° 0.1 mm 1 m/s 470 mmHg 72%
    09:00 +11°C° 0.1 mm 1 m/s 471 mmHg 64%
    10:00 +12°C° 0.1 mm 2 m/s 472 mmHg 57%
    11:00 +13°C° 0.1 mm 2 m/s 473 mmHg 49%
    12:00 +14°C° 0.3 mm 2 m/s 473 mmHg 46%
    13:00 +14°C° 0.3 mm 3 m/s 472 mmHg 43%
    14:00 +15°C° 0.3 mm 4 m/s 472 mmHg 40%
    15:00 +14°C° 0.4 mm 4 m/s 472 mmHg 46%
    16:00 +13°C° 0.4 mm 4 m/s 471 mmHg 51%
    17:00 +12°C° 0.4 mm 4 m/s 470 mmHg 57%
    18:00 +11°C° 0.7 mm 4 m/s 470 mmHg 62%
    19:00 +10°C° 0.7 mm 3 m/s 469 mmHg 66%
    20:00 +9°C° 0.7 mm 3 m/s 469 mmHg 71%
    21:00 +9°C° 0 mm 2 m/s 469 mmHg 73%
    22:00 +8°C° 0 mm 2 m/s 470 mmHg 75%
    23:00 +8°C° 0 mm 2 m/s 470 mmHg 78%

    Demain, 23 Septembre, Lundi

    Heure Température Précipitation Vent Pression Humidité
    00:00 +8°C° 0 mm 2 m/s 469 mmHg 80%
    01:00 +8°C° 0 mm 2 m/s 469 mmHg 82%
    02:00 +7°C° 0 mm 2 m/s 469 mmHg 85%
    03:00 +7°C° 0 mm 2 m/s 469 mmHg 86%
    04:00 +7°C° 0 mm 2 m/s 468 mmHg 87%
    05:00 +6°C° 0 mm 2 m/s 468 mmHg 88%
    06:00 +7°C° 0 mm 2 m/s 469 mmHg 84%
    07:00 +8°C° 0 mm 1 m/s 469 mmHg 80%
    08:00 +9°C° 0 mm 1 m/s 470 mmHg 76%
    09:00 +9°C° 0.1 mm 2 m/s 470 mmHg 67%
    10:00 +12°C° 0.1 mm 2 m/s 471 mmHg 57%
    11:00 +14°C° 0.1 mm 2 m/s 472 mmHg 48%
    12:00 +14°C° 0.3 mm 3 m/s 472 mmHg 44%
    13:00 +14°C° 0.3 mm 3 m/s 472 mmHg 41%
    14:00 +15°C° 0.3 mm 4 m/s 472 mmHg 37%
    15:00 +15°C° 0.2 mm 4 m/s 471 mmHg 40%
    16:00 +14°C° 0.2 mm 4 m/s 470 mmHg 42%
    17:00 +13°C° 0.2 mm 5 m/s 469 mmHg 44%
    18:00 +13°C° 0.2 mm 4 m/s 470 mmHg 47%
    19:00 +13°C° 0.2 mm 2 m/s 470 mmHg 51%
    20:00 +12°C° 0.2 mm 1 m/s 470 mmHg 54%
    21:00 +12°C° 0 mm 2 m/s 470 mmHg 54%
    22:00 +12°C° 0 mm 2 m/s 471 mmHg 54%
    23:00 +10°C° 0 mm 2 m/s 471 mmHg 54%

    Après-demain, 24 Septembre, Mardi

    Heure Température Précipitation Vent Pression Humidité
    00:00 +10°C° 0 mm 2 m/s 470 mmHg 57%
    01:00 +10°C° 0 mm 1 m/s 470 mmHg 60%
    02:00 +10°C° 0 mm 1 m/s 469 mmHg 63%
    03:00 +9°C° 0 mm 1 m/s 469 mmHg 66%
    04:00 +8°C° 0 mm 1 m/s 469 mmHg 69%
    05:00 +7°C° 0 mm 2 m/s 468 mmHg 72%
    06:00 +7°C° 0 mm 2 m/s 469 mmHg 70%
    07:00 +7°C° 0 mm 2 m/s 469 mmHg 68%
    08:00 +8°C° 0 mm 2 m/s 470 mmHg 67%
    09:00 +9°C° 0 mm 3 m/s 471 mmHg 60%
    10:00 +11°C° 0 mm 3 m/s 471 mmHg 53%
    11:00 +12°C° 0 mm 4 m/s 472 mmHg 46%
    12:00 +13°C° 0 mm 5 m/s 472 mmHg 44%
    13:00 +14°C° 0 mm 6 m/s 472 mmHg 41%
    14:00 +15°C° 0 mm 7 m/s 472 mmHg 39%
    15:00 +12°C° 0.7 mm 7 m/s 471 mmHg 45%
    16:00 +11°C° 0.7 mm 7 m/s 470 mmHg 50%
    17:00 +10°C° 0.7 mm 7 m/s 468 mmHg 56%
    18:00 +9°C° 0.8 mm 6 m/s 468 mmHg 62%
    19:00 +8°C° 0.8 mm 5 m/s 468 mmHg 69%
    20:00 +6°C° 0.8 mm 4 m/s 468 mmHg 75%
    21:00 +6°C° 0 mm 4 m/s 468 mmHg 76%
    22:00 +6°C° 0 mm 4 m/s 468 mmHg 78%
    23:00 +6°C° 0 mm 4 m/s 469 mmHg 79%

    25 Septembre, Mercredi

    Heure Température Précipitation Vent Pression Humidité
    00:00 +6°C° 0 mm 4 m/s 468 mmHg 79%
    01:00 +6°C° 0 mm 4 m/s 468 mmHg 80%
    02:00 +5°C° 0 mm 3 m/s 468 mmHg 81%
    03:00 +5°C° 0 mm 3 m/s 468 mmHg 81%
    04:00 +6°C° 0 mm 2 m/s 468 mmHg 81%
    05:00 +6°C° 0 mm 2 m/s 468 mmHg 82%
    06:00 +6°C° 0.1 mm 2 m/s 468 mmHg 80%
    07:00 +7°C° 0.1 mm 2 m/s 469 mmHg 78%
    08:00 +7°C° 0.1 mm 2 m/s 469 mmHg 76%
    09:00 +8°C° 0.3 mm 2 m/s 470 mmHg 72%
    10:00 +8°C° 0.3 mm 2 m/s 470 mmHg 68%
    11:00 +9°C° 0.3 mm 2 m/s 471 mmHg 63%
    12:00 +9°C° 0.9 mm 2 m/s 470 mmHg 63%
    13:00 +9°C° 0.9 mm 3 m/s 470 mmHg 63%
    14:00 +10°C° 0.9 mm 3 m/s 469 mmHg 63%
    15:00 +9°C° 1.3 mm 3 m/s 469 mmHg 65%
    16:00 +9°C° 1.3 mm 3 m/s 468 mmHg 68%
    17:00 +8°C° 1.3 mm 3 m/s 468 mmHg 70%
    18:00 +7°C° 0.3 mm 3 m/s 468 mmHg 74%
    19:00 +7°C° 0.3 mm 2 m/s 468 mmHg 77%
    20:00 +6°C° 0.3 mm 2 m/s 468 mmHg 80%
    21:00 +6°C° 0 mm 2 m/s 468 mmHg 81%
    22:00 +6°C° 0 mm 1 m/s 468 mmHg 81%
    23:00 +6°C° 0 mm 1 m/s 469 mmHg 82%

    26 Septembre, Jeudi

    Heure Température Précipitation Vent Pression Humidité
    00:00 +6°C° 0 mm 1 m/s 468 mmHg 82%
    01:00 +6°C° 0 mm 1 m/s 468 mmHg 82%
    02:00 +5°C° 0 mm 1 m/s 468 mmHg 82%
    03:00 +4°C° 0 mm 0 m/s 468 mmHg 82%
    04:00 +4°C° 0 mm 0 m/s 467 mmHg 82%
    05:00 +4°C° 0 mm 0 m/s 467 mmHg 82%
    06:00 +4°C° 0 mm 0 m/s 468 mmHg 76%
    07:00 +4°C° 0 mm 0 m/s 468 mmHg 70%
    08:00 +6°C° 0 mm 1 m/s 469 mmHg 64%
    09:00 +7°C° 0 mm 1 m/s 470 mmHg 51%
    10:00 +8°C° 0 mm 2 m/s 471 mmHg 39%
    11:00 +10°C° 0 mm 2 m/s 472 mmHg 26%
    12:00 +11°C° 0 mm 3 m/s 471 mmHg 24%
    13:00 +11°C° 0 mm 4 m/s 471 mmHg 22%
    14:00 +12°C° 0 mm 4 m/s 471 mmHg 21%
    15:00 +12°C° 0 mm 5 m/s 471 mmHg 23%
    16:00 +10°C° 0 mm 5 m/s 470 mmHg 25%
    17:00 +10°C° 0 mm 5 m/s 470 mmHg 27%
    18:00 +10°C° 0 mm 4 m/s 469 mmHg 30%
    19:00 +8°C° 0 mm 4 m/s 469 mmHg 34%
    20:00 +7°C° 0 mm 3 m/s 469 mmHg 38%
    21:00 +7°C° 0 mm 2 m/s 468 mmHg 39%
    22:00 +6°C° 0 mm 2 m/s 468 mmHg 41%
    23:00 +7°C° 0 mm 1 m/s 468 mmHg 43%

    27 Septembre, Vendredi

    Heure Température Précipitation Vent Pression Humidité
    00:00 +6°C° 0 mm 1 m/s 467 mmHg 46%
    01:00 +6°C° 0 mm 1 m/s 467 mmHg 48%
    02:00 +6°C° 0 mm 1 m/s 466 mmHg 51%
    03:00 +5°C° 0 mm 1 m/s 466 mmHg 52%
    04:00 +4°C° 0 mm 0 m/s 466 mmHg 53%
    05:00 +4°C° 0 mm 0 m/s 466 mmHg 54%
    06:00 +5°C° 0 mm 0 m/s 467 mmHg 47%
    07:00 +6°C° 0 mm 0 m/s 468 mmHg 40%
    08:00 +8°C° 0 mm 0 m/s 469 mmHg 33%
    09:00 +10°C° 0 mm 1 m/s 470 mmHg 29%
    10:00 +12°C° 0 mm 1 m/s 471 mmHg 25%
    11:00 +14°C° 0 mm 2 m/s 472 mmHg 21%
    12:00 +15°C° 0 mm 2 m/s 472 mmHg 20%
    13:00 +16°C° 0 mm 2 m/s 471 mmHg 19%
    14:00 +17°C° 0 mm 3 m/s 471 mmHg 18%
    15:00 +15°C° 0 mm 4 m/s 471 mmHg 19%
    16:00 +15°C° 0 mm 4 m/s 470 mmHg 20%
    17:00 +15°C° 0 mm 5 m/s 470 mmHg 21%
    18:00 +14°C° 0 mm 4 m/s 470 mmHg 24%
    19:00 +12°C° 0 mm 3 m/s 469 mmHg 27%
    20:00 +12°C° 0 mm 2 m/s 469 mmHg 31%
    21:00 +10°C° 0 mm 2 m/s 469 mmHg 33%
    22:00 +10°C° 0 mm 2 m/s 469 mmHg 36%
    23:00 +10°C° 0 mm 1 m/s 469 mmHg 38%
    Voir plus